This demonstration page uses our WeatherBlox Daily Observations layout. Learn more.

Hourly Observations for December 21, 2016

Temp ( °F °C ) Dew Point ( °F °C ) Humidity (%) Winds ( mph kmh ) Pressure ( in mb ) Visibility ( mi km ) Precip ( " mm )
12:15 am 00:15 Clear 38 3.2 21 -6 51 51 SSW 14 22 30.06 1018 10 16.0934 0 0
12:35 am 00:35 Clear 38 3.2 21 -6 51 51 SSW 14 22 30.03 1017 10 16.0934 0 0
12:55 am 00:55 Clear 37 2.8 21 -6 53 53 SW 12 19 30.03 1017 10 16.0934 0 0
1:15 am 01:15 Clear 36 2.3 21 -6 55 55 SSW 12 19 30.06 1018 10 16.0934 0 0
1:35 am 01:35 Clear 34 1.3 21 -6 59 59 SW 10 17 30.06 1018 10 16.0934 0 0
1:55 am 01:55 Clear 34 1.1 21 -6 60 60 SSW 14 22 30.03 1017 10 16.0934 0 0
2:15 am 02:15 Clear 33 0.8 21 -6 61 61 SW 10 17 30.03 1017 10 16.0934 0 0
2:35 am 02:35 Clear 33 0.5 21 -5.9 63 63 SW 7 11 30.03 1017 10 16.0934 0 0
2:55 am 02:55 Clear 33 0.3 22 -5.7 64 64 SW 5 7 30.03 1017 10 16.0934 0 0
3:15 am 03:15 Clear 33 0.5 22 -5.5 64 64 SSW 6 9 30.03 1017 10 16.0934 0 0
3:35 am 03:35 Clear 34 1 23 -5.2 64 64 SW 6 9 30.03 1017 10 16.0934 0 0
3:55 am 03:55 Clear 33 0.7 23 -5.2 65 65 SW 7 11 30 1016 10 16.0934 0 0
4:15 am 04:15 Clear 32 0.1 22 -5.3 67 67 SW 5 7 30.03 1017 10 16.0934 0 0
4:35 am 04:35 Clear 32 0 22 -5.3 68 68 SW 7 11 30.03 1017 10 16.0934 0 0
4:55 am 04:55 Partly Cloudy 31 -0.5 22 -5.6 69 69 SW 6 9 30 1016 10 16.0934 0 0
5:15 am 05:15 Partly Cloudy 31 -0.6 22 -5.5 70 70 SW 7 11 30 1016 10 16.0934 0 0
5:35 am 05:35 Clear 30 -1 22 -5.6 71 71 SW 5 7 30.06 1018 10 16.0934 0 0
5:55 am 05:55 Partly Cloudy 30 -1.2 22 -5.7 72 72 SW 6 9 30 1016 10 16.0934 0 0
6:15 am 06:15 Partly Cloudy 29 -1.4 21 -5.9 72 72 W 7 11 30.06 1018 10 16.0934 0 0
6:30 am 06:30 Clear 31 -0.6 22 -5.4 70 70 WNW 5 7 30.03 1017 10 16.0934 0 0
6:55 am 06:55 Clear 28 -2.4 21 -6 77 77 W 9 15 30.06 1018 10 16.0934 0 0
7:15 am 07:15 Clear 30 -0.9 22 -5.4 72 72 W 8 13 30.03 1017 10 16.0934 0 0
7:35 am 07:35 Clear 32 0.1 23 -5.2 68 68 WNW 10 17 30.06 1018 10 16.0934 0 0
7:55 am 07:55 Clear 35 1.4 24 -4.5 65 65 NW 13 20 30.06 1018 10 16.0934 0 0
8:15 am 08:15 Sunny 43 6.2 26 -3.1 52 52 NW 15 24 30.03 1017 10 16.0934 0 0
8:35 am 08:35 Sunny 43 6 27 -3 53 53 NNW 15 24 30.09 1019 10 16.0934 0 0
8:55 am 08:55 Sunny 45 7 28 -2.4 52 52 N 15 24 30.06 1018 10 16.0934 0 0
9:15 am 09:15 Sunny 46 7.7 28 -2.1 50 50 N 18 30 30.09 1019 10 16.0934 0 0
9:35 am 09:35 Sunny 46 7.9 26 -3.2 46 46 N 24 39 30.12 1020 10 16.0934 0 0
9:55 am 09:55 Sunny 47 8.5 24 -4.7 39 39 N 25 41 30.12 1020 10 16.0934 0 0
10:15 am 10:15 Sunny 45 7.3 22 -5.7 39 39 N 24 39 30.12 1020 10 16.0934 0 0
10:35 am 10:35 Sunny 47 8.1 20 -6.5 35 35 N 24 39 30.15 1021 10 16.0934 0 0
10:55 am 10:55 Sunny 46 7.9 19 -7.1 34 34 N 22 35 30.15 1021 10 16.0934 0 0
11:15 am 11:15 Sunny 47 8.1 20 -6.7 35 35 N 22 35 30.15 1021 10 16.0934 0 0
11:35 am 11:35 Sunny 47 8.2 18 -7.9 31 31 N 21 33 30.15 1021 10 16.0934 0 0
11:55 am 11:55 Sunny 47 8.1 17 -8.5 30 30 N 23 37 30.15 1021 10 16.0934 0 0
12:15 pm 12:15 Sunny 47 8.1 16 -8.7 30 30 N 16 26 30.15 1021 10 16.0934 0 0
12:35 pm 12:35 Sunny 46 8 16 -8.9 29 29 N 15 24 30.15 1021 10 16.0934 0 0
12:55 pm 12:55 Sunny 47 8.4 16 -8.8 29 29 NNW 16 26 30.15 1021 10 16.0934 0 0
1:15 pm 13:15 Sunny 48 8.7 15 -9.4 27 27 NNW 14 22 30.18 1022 10 16.0934 0 0
1:35 pm 13:35 Sunny 48 9 14 -10.2 25 25 N 15 24 30.18 1022 10 16.0934 0 0
1:55 pm 13:55 Sunny 49 9.7 14 -10.2 24 24 N 18 30 30.18 1022 10 16.0934 0 0
2:15 pm 14:15 Sunny 49 9.6 13 -10.5 23 23 N 18 30 30.18 1022 10 16.0934 0 0
2:35 pm 14:35 Sunny 49 9.6 13 -10.6 23 23 N 18 30 30.18 1022 10 16.0934 0 0
2:55 pm 14:55 Sunny 50 9.9 13 -10.5 23 23 N 16 26 30.21 1023 10 16.0934 0 0
3:15 pm 15:15 Sunny 50 9.8 11 -11.7 21 21 N 20 31 30.21 1023 10 16.0934 0 0
3:35 pm 15:35 Sunny 49 9.4 12 -11.3 22 22 N 18 30 30.21 1023 10 16.0934 0 0
3:55 pm 15:55 Sunny 48 8.8 12 -11 24 24 NNW 23 37 30.24 1024 10 16.0934 0 0
4:15 pm 16:15 Sunny 47 8.2 12 -11 25 25 NNW 21 33 30.24 1024 10 16.0934 0 0
4:35 pm 16:35 Sunny 46 7.5 13 -10.6 27 27 NNW 17 28 30.27 1025 10 16.0934 0 0
4:55 pm 16:55 Sunny 44 6.9 13 -10.5 28 28 NNW 16 26 30.27 1025 10 16.0934 0 0
5:15 pm 17:15 Clear 43 6 13 -10.4 30 30 N 16 26 30.3 1026 10 16.0934 0 0
5:35 pm 17:35 Clear 41 5 14 -10 33 33 NNW 10 17 30.3 1026 10 16.0934 0 0
5:55 pm 17:55 Clear 39 4.1 14 -10 35 35 NNW 10 17 30.33 1027 10 16.0934 0 0
6:15 pm 18:15 Clear 37 3 14 -10 38 38 N 9 15 30.33 1027 10 16.0934 0 0
6:35 pm 18:35 Clear 36 2.2 14 -10 40 40 NNW 7 11 30.33 1027 10 16.0934 0 0
6:55 pm 18:55 Clear 34 1 14 -10 44 44 NNW 6 9 30.39 1029 10 16.0934 0 0
7:15 pm 19:15 Clear 32 0.2 14 -10 47 47 NNW 7 11 30.39 1029 10 16.0934 0 0
7:35 pm 19:35 Clear 33 0.7 15 -9.3 48 48 N 10 17 30.39 1029 10 16.0934 0 0
7:55 pm 19:55 Clear 34 1.3 16 -8.9 47 47 N 13 20 30.39 1029 10 16.0934 0 0
8:15 pm 20:15 Clear 34 1 16 -8.8 48 48 N 12 19 30.42 1030 10 16.0934 0 0
8:35 pm 20:35 Clear 33 0.4 17 -8.6 51 51 NNW 9 15 30.42 1030 10 16.0934 0 0
8:55 pm 20:55 Clear 32 -0.2 16 -8.8 53 53 NNW 7 11 30.45 1031 10 16.0934 0 0
9:15 pm 21:15 Clear 29 -1.9 15 -9.3 57 57 W 3 6 30.48 1032 10 16.0934 0 0
9:35 pm 21:35 Clear 27 -2.7 15 -9.4 60 60 W 6 9 30.48 1032 10 16.0934 0 0
9:55 pm 21:55 Clear 26 -3.1 15 -9.2 63 63 WSW 5 7 30.48 1032 10 16.0934 0 0
10:15 pm 22:15 Clear 27 -2.8 16 -8.8 64 64 WNW 7 11 30.5 1033 10 16.0934 0 0
10:35 pm 22:35 Clear 28 -2 17 -8.2 63 63 WNW 6 9 30.5 1033 10 16.0934 0 0
10:55 pm 22:55 Clear 26 -3.3 17 -8.6 67 67 WNW 7 11 30.53 1034 10 16.0934 0 0
11:15 pm 23:15 Clear 25 -3.7 16 -8.7 69 69 W 5 7 30.53 1034 10 16.0934 0 0
11:35 pm 23:35 Clear 27 -2.9 17 -8.3 67 67 W 8 13 30.5 1033 10 16.0934 0 0
11:55 pm 23:55 Clear 28 -2.5 17 -8.2 65 65 W 8 13 30.5 1033 10 16.0934 0 0

Powered by AerisWeather